Location: *
(50.5492°N, 7.7469°E)
Time: 02:04:10
(UTC+00:00)

USA 238 - Pass Details

Date: 21 October 2019
Orbit: 1026 x 1186 km, 63.4° (Epoch: 11 November)

Event Time Altitude Azimuth Distance (km) Brightness Sun altitude
Rises 17:09:20 0° 185° (S) 3,769 6.7 -7.6°
Reaches altitude 10° 17:12:10 10° 176° (S) 2,832 6.0 -8.1°
Maximum altitude 17:17:58 33° 115° (ESE) 1,703 4.4 -9.0°
Drops below altitude 10° 17:23:57 10° 55° (NE) 2,926 5.5 -9.9°
Enters shadow 17:25:11 - 51° (NE) 3,325 5.8 -10.1°
